User: anonymous   Login
Location: Unspecified
(0.0000°N, 0.0000°E)
Time: 07:11:27
(UTC+00:00)
Language:

Cosmos 2499 - Orbit

View from above orbital plane
View from above orbital plane
View from above satellite
View from above satellite

Ground track
Ground track

The orbit data is extracted from the following two-line orbital elements,

1 39765U 14028E   18225.70659908 +.00000353 +00000-0 +12888-2 0  9997
2 39765 082.4399 026.3420 0228962 246.4104 111.2804 12.83342838197932
Epoch (UTC): 13 August 2018 16:57:30
Eccentricity: 0.0228962
inclination: 82.4399°
perigee height: 1151 km
apogee height: 1504 km
right ascension of ascending node: 26.3420°
argument of perigee: 246.4104°
revolutions per day: 12.83342838
mean anomaly at epoch: 111.2804°
orbit number at epoch: 19793

The dashed part of the orbit path shows where the satellite is in the earth's shadow,  

DLR